Location: Vancouver
(49.2500°N, 123.1330°W)
Time: 17:18:17
(UTC-07:00)

Cosmos 2333 Rocket - Visible Passes

Search period start: 24 September 2016 00:00
Search period end: 04 October 2016 00:00
Orbit: 837 x 865 km, 70.8° (Epoch: 24 September)

Date Brightness Start Highest point End Pass type
(mag) Time Alt. Az. Time Alt. Az. Time Alt. Az.
24 Sep 5.0 02:20:47 10° N 02:23:56 15° NNE 02:27:04 10° ENE visible
24 Sep 3.1 04:04:07 10° NNW 04:09:42 49° NE 04:15:13 10° SE visible
24 Sep 2.8 05:48:45 10° NW 05:53:48 33° WSW 05:58:47 10° SSW visible
24 Sep 3.7 20:45:47 10° WSW 20:51:11 39° NW 20:56:36 10° NNE visible
24 Sep 5.1 22:34:43 10° NW 22:37:12 13° NNW 22:39:42 10° N visible
25 Sep 4.9 02:08:32 10° N 02:11:41 15° NNE 02:14:49 10° ENE visible
25 Sep 3.0 03:51:51 10° NNW 03:57:27 49° NE 04:02:57 10° SE visible
25 Sep 2.8 05:36:29 10° NW 05:41:31 33° WSW 05:46:31 10° SSW visible
25 Sep 3.7 20:33:32 10° WSW 20:38:55 39° NW 20:44:20 10° NNE visible
25 Sep 5.1 22:22:28 10° NW 22:24:56 13° NNW 22:27:26 10° N visible
26 Sep 4.9 01:56:17 10° N 01:59:25 15° NNE 02:02:33 10° ENE visible
26 Sep 3.0 03:39:36 10° NNW 03:45:11 49° NE 03:50:42 10° SE visible
26 Sep 2.8 05:24:13 10° NW 05:29:16 33° WSW 05:34:16 10° SSW visible
26 Sep 3.7 20:21:16 10° WSW 20:26:40 39° NW 20:32:05 10° NNE visible
26 Sep 5.1 22:10:12 10° NW 22:12:41 13° NNW 22:15:10 10° N visible
27 Sep 4.9 01:44:01 10° N 01:47:09 15° NNE 01:50:17 10° ENE visible
27 Sep 3.0 03:27:21 10° NNW 03:32:55 49° NE 03:38:25 10° SE visible
27 Sep 2.8 05:11:58 10° NW 05:17:01 33° WSW 05:21:59 10° SSW visible
27 Sep 3.7 20:09:01 10° WSW 20:14:25 39° NW 20:19:49 10° NNE visible
27 Sep 5.1 21:57:57 10° NW 22:00:26 13° NNW 22:02:54 10° N visible
28 Sep 4.8 01:31:46 10° N 01:34:54 15° NNE 01:36:54 13° NE visible
28 Sep 3.5 03:15:05 10° NNW 03:18:45 36° N 03:18:45 36° N visible
28 Sep 4.1 04:59:43 10° NW 05:00:35 14° NW 05:00:35 14° NW visible
28 Sep 3.7 19:56:45 10° WSW 20:02:09 39° NW 20:07:34 10° NNE visible
28 Sep 5.0 21:45:41 10° NW 21:48:10 13° NNW 21:50:39 10° N visible
29 Sep 4.8 01:19:30 10° N 01:22:38 15° NNE 01:23:10 14° NE visible
29 Sep 4.1 03:02:49 10° NNW 03:05:04 23° N 03:05:04 23° N visible
29 Sep 3.7 19:44:30 10° WSW 19:49:53 39° NW 19:55:18 10° NNE visible
29 Sep 5.0 21:33:26 10° NW 21:35:54 13° NNW 21:38:23 10° N visible
30 Sep 4.8 01:07:15 10° N 01:10:04 15° NNE 01:10:04 15° NNE visible
30 Sep 4.4 02:50:34 10° NNW 02:52:00 18° NNW 02:52:00 18° NNW visible
30 Sep 3.7 19:32:15 10° WSW 19:37:38 39° NW 19:43:02 10° NNE visible
30 Sep 5.0 21:21:10 10° NW 21:23:39 13° NNW 21:26:07 10° N visible
01 Oct 4.8 00:55:00 10° N 00:57:15 14° NNE 00:57:15 14° NNE visible
01 Oct 4.6 02:38:19 10° NNW 02:39:12 15° NNW 02:39:12 15° NNW visible
01 Oct 3.7 19:19:59 10° WSW 19:25:22 39° NW 19:30:46 10° NNE visible
01 Oct 4.9 21:08:55 10° NW 21:11:23 13° NNW 21:13:51 10° N visible
02 Oct 4.9 00:42:44 10° N 00:44:37 14° NNE 00:44:37 14° NNE visible
02 Oct 4.8 02:26:03 10° NNW 02:26:34 13° NNW 02:26:34 13° NNW visible
02 Oct 3.7 19:07:43 10° WSW 19:13:07 39° NW 19:18:31 10° NNE visible
02 Oct 4.9 20:56:40 10° NW 20:59:08 13° NNW 21:01:35 10° N visible
03 Oct 4.9 00:30:29 10° N 00:32:05 13° NNE 00:32:05 13° NNE visible
03 Oct 4.9 02:13:48 10° NNW 02:14:03 11° NNW 02:14:03 11° NNW visible
03 Oct 4.9 20:44:25 10° NW 20:46:52 13° NNW 20:49:20 10° N visible
